Flag for France Weather past 2 weeks in Paris, France

Now
64 °F

Partly sunny.


Feels Like: 64 °F
Forecast: 49 / 67 °F
Wind: 13 mph from Southwest

Location: Villacoublay

Current Time: May 29, 2015 at 4:44:18 PM

Latest Report: May 29, 2015 at 4:00 PM


Visibility: N/A

Pressure: 29.89 "Hg

Humidity: 52%

Dew point: 46 °F

Location of ParisLocation

Historic Weather in Paris — Graph

°F

Paris temperature yesterday

Maximum temperature yesterday: 66 °F (at 5:00 PM)
Minimum temperature yesterday: 50 °F (at 4:30 AM)
Average temperature yesterday: 58 °F

Past Weeks' High & Low Weather Summary

 TemperatureHumidityPressure
High70 °F (May 23, 4:30 PM)100% (May 15, 12:30 AM)30.39 "Hg (May 15, 12:30 AM)
Low39 °F (May 20, 5:30 AM)40% (May 27, 5:30 PM)29.77 "Hg (May 18, 6:00 PM)
Average55 °F74%30.12 "Hg
* Reported May 14 3:00 PM — May 29 3:30 PM, Paris, Weather by CustomWeather, © 2015

Note: Actual official high and low records may vary slightly from our data, if they occured in-between our weather recording intervals... More about our weather records

Advertising

Paris weather history for previous 24 hours

 ConditionsComfort  
Time TempWeatherWind HumidityBarometerVisibility
3:30 PM
Fri, May 29
64 °FBroken clouds.15 mph49%29.89 "HgN/A
3:00 PM63 °FMostly cloudy.12 mph52%29.89 "HgN/A
2:30 PM63 °FPartly sunny.10 mph52%29.89 "HgN/A
2:00 PM63 °FPartly sunny.12 mph52%29.92 "HgN/A
1:30 PM61 °FPartly sunny.13 mph52%29.92 "HgN/A
1:00 PM63 °FPartly sunny.12 mph49%29.92 "HgN/A
12:30 PM61 °FPartly sunny.12 mph48%29.92 "HgN/A
12:00 PM61 °FScattered clouds.12 mph48%29.92 "HgN/A
11:30 AM59 °FScattered clouds.10 mph51%29.92 "HgN/A
11:00 AM59 °FPassing clouds.13 mph55%29.95 "HgN/A
10:30 AM57 °FBroken clouds.10 mph59%29.95 "HgN/A
10:00 AM57 °FPassing clouds.10 mph63%29.95 "HgN/A
9:30 AM54 °FBroken clouds.8 mph67%29.95 "HgN/A
9:00 AM52 °FOvercast.9 mph82%29.95 "HgN/A
8:30 AM52 °FBroken clouds.14 mph77%29.95 "HgN/A
8:00 AM52 °FPartly sunny.8 mph82%29.95 "HgN/A
7:30 AM54 °FMostly cloudy.7 mph72%29.95 "HgN/A
7:00 AM54 °FOvercast.6 mph77%29.95 "HgN/A
6:30 AM54 °FMostly cloudy.3 mph77%29.92 "HgN/A
6:00 AM54 °FMostly cloudy.3 mph77%29.95 "HgN/A
5:30 AM54 °FOvercast.2 mph77%29.95 "HgN/A
5:00 AM54 °FMostly cloudy.3 mph77%29.95 "HgN/A
4:30 AM54 °FPassing clouds.5 mph77%29.98 "HgN/A
4:00 AM54 °FMostly cloudy.3 mph82%29.98 "HgN/A
3:30 AM54 °FPartly cloudy.2 mph82%29.98 "HgN/A
3:00 AM54 °FMostly cloudy.No wind77%29.98 "HgN/A
2:30 AM54 °FOvercast.No wind77%29.98 "HgN/A
2:00 AM54 °FMostly cloudy.No wind77%30.01 "HgN/A
1:30 AM54 °FPassing clouds.2 mph77%30.01 "HgN/A
12:00 AM54 °FPassing clouds.5 mph82%30.01 "HgN/A
11:30 PM
Thu, May 28
55 °FPassing clouds.5 mph77%30.01 "HgN/A
11:00 PM55 °FPassing clouds.3 mph77%30.04 "HgN/A
10:30 PM57 °FPassing clouds.6 mph72%30.04 "HgN/A
10:00 PM59 °FPassing clouds.6 mph68%30.01 "HgN/A
9:30 PM59 °FPartly sunny.10 mph68%30.01 "HgN/A
9:00 PM61 °FBroken clouds.8 mph68%30.01 "HgN/A
8:30 PM63 °FBroken clouds.9 mph59%30.01 "HgN/A
8:00 PM63 °FPartly sunny.8 mph64%30.01 "HgN/A
7:30 PM63 °FPartly sunny.9 mph64%30.01 "HgN/A
7:00 PM64 °FPartly sunny.8 mph60%30.01 "HgN/A
6:30 PM64 °FPartly sunny.10 mph60%30.01 "HgN/A
6:00 PM64 °FBroken clouds.10 mph64%30.04 "HgN/A
5:30 PM64 °FBroken clouds.10 mph60%30.04 "HgN/A
5:00 PM66 °FBroken clouds.9 mph56%30.04 "HgN/A
4:30 PM64 °FPartly sunny.9 mph60%30.04 "HgN/A
4:00 PM64 °FBroken clouds.10 mph60%30.04 "HgN/A
Weather by CustomWeather, © 2015

See weather overviewHow to use our weather pages